Regional Weather Roundup
Issued by NWS Upton, NY

Current Version | Previous Version | Graphics & Text | Print | Product List | Glossary Off
Versions: 1 2 3 4 5 6 7 8 9 10 11 12 13 14 15 16 17 18 19 20 21 22 23 24 25 26 27 28 29 30 31 32 33 34 35 36 37 38 39 40 41 42 43 44 45 46 47 48 49 50

000
ASUS41 KOKX 011304
RWROKX

REGIONAL WEATHER ROUNDUP
NATIONAL WEATHER SERVICE NEW YORK NY
900 AM EDT SAT AUG 01 2015

NOTE: "FAIR" INDICATES FEW OR NO CLOUDS BELOW 12,000 FEET WITH NO
SIGNIFICANT WEATHER AND/OR OBSTRUCTIONS TO VISIBILITY.

NYZ071-072-176-178-NJZ106-104-011400-
NEW YORK CITY METRO AREA


CITY           SKY/WX    TMP DP  RH WIND       PRES   REMARKS
CENTRAL PARK   SUNNY     79  60  52 VRB3      29.83S
LAGUARDIA APRT MOSUNNY   82  60  47 SW8       29.79S
KENNEDY INTL   MOSUNNY   80  66  62 SW10      29.81S
NEWARK/LIBERTY MOSUNNY   81  62  52 SW7       29.80S
BRNX BOT. GARD   N/A    N/A N/A N/A W9        29.80S
TETERBORO      SUNNY     81  61  50 S6        29.79S
$$

NYZ177-179-078>081-011400-
LONG ISLAND NEW YORK

CITY           SKY/WX    TMP DP  RH WIND       PRES   REMARKS
FARMINGDALE    SUNNY     81  63  54 SW8       29.80F
ISLIP          MOSUNNY   82  63  52 W10       29.78S
SHIRLEY        SUNNY     82  64  54 SW7       29.80S
WESTHAMPTON    SUNNY     83  66  56 W10       29.81S
MONTAUK POINT    N/A     81  66  60 SW7       29.80S
$$

NYZ052-065-067-011400-
HUDSON VALLEY

CITY           SKY/WX    TMP DP  RH WIND       PRES   REMARKS
WHITE PLAINS   MOSUNNY   78  63  59 W5        29.80S
NEWBURGH       MOSUNNY   75  64  69 W8        29.82R
MONTGOMERY     MOSUNNY   74  64  71 SW6       29.81R
POUGHKEEPSIE   MOSUNNY   76  62  62 VRB3      29.78S
ALBANY         PTSUNNY   73  61  65 W6        29.77S
$$

NJZ001-105-106-008-010-013-015-019>022-104-011400-
NEW JERSEY

CITY           SKY/WX    TMP DP  RH WIND       PRES   REMARKS
NEWARK/LIBERTY MOSUNNY   81  62  52 SW7       29.80S
TETERBORO      SUNNY     81  61  50 S6        29.79S
CALDWELL       SUNNY     78  62  57 SW6       29.81S
MORRISTOWN     MOSUNNY   81  64  57 W12       29.81S
SOMERVILLE     MOSUNNY   77  65  66 CALM      29.81S
SUSSEX         SUNNY     72  63  73 SW7       29.83R
ANDOVER          N/A     73  63  70 SW5       29.84R
TRENTON        SUNNY     79  63  57 W9        29.84R
MILLVILLE      SUNNY     81  66  60 W12       29.87R
ATLANTIC CITY  SUNNY     81  66  60 W10       29.86R
WRIGHTSTOWN    NOT AVBL
TOMS RIVER       N/A     81  64  57 SW10      29.84S
BELMAR         SUNNY     79  63  57 SW7       29.83F
$$

PAZ047>061-062-071-011400-
EASTERN PENNSYLVANIA

CITY           SKY/WX    TMP DP  RH WIND       PRES   REMARKS
PHILADELPHIA   MOSUNNY   80  61  52 W13       29.86R
ALLENTOWN      PTSUNNY   74  65  73 W6        29.84S
SCRANTON       SUNNY     75  61  61 SW10      29.84S
$$

CTZ002-004>006-009-010-012-RIZ004-006-007-MAZ004-011-015-011400-
SOUTHERN NEW ENGLAND
 IN CT

CITY           SKY/WX    TMP DP  RH WIND       PRES   REMARKS
BRADLEY INTL   MOSUNNY   77  62  59 CALM      29.77R
HARTFORD       SUNNY     79  62  56 W6        29.77R
DANBURY        SUNNY     76  61  59 SW7       29.80F
WTRBRY/OXFORD  MOSUNNY   73  61  64 VRB3      29.83R
BRIDGEPORT     SUNNY     80  65  59 SW8       29.79R
MERIDEN        SUNNY     80  63  55 CALM      29.78S
NEW HAVEN      SUNNY     76  65  68 VRB5      29.79R
CHESTER        FAIR      77  64  65 SW6       29.80S
GROTON         SUNNY     78  67  68 W7        29.78R
WILLIMANTIC    SUNNY     75  63  66 CALM      29.78F

 IN RI

CITY           SKY/WX    TMP DP  RH WIND       PRES   REMARKS
PROVIDENCE     MOSUNNY   80  64  58 W12       29.77S
BLOCK ISLAND     N/A     75  68  78 SW10      29.80S
WESTERLY       SUNNY     78  67  68 SW7       29.79S

 IN MA

CITY           SKY/WX    TMP DP  RH WIND       PRES   REMARKS
BOSTON         NOT AVBL
WORCESTER      SUNNY     74  60  61 W8        29.80R
WESTFIELD      PTSUNNY   73  61  65 CALM      29.78S
PROVINCETOWN   SUNNY     77  63  61 S14       29.77S
NANTUCKET      SUNNY     74  69  85 S9        29.80S
$$

ANZ330-335-338-340-345-350-353-355-011400-
COASTAL MARINE OBSERVATIONS


STATION/POSITION TIME  SKY/WX   TEMP    WIND        PRES    VSBY  WAVE
                                AIR SEA DIR/SP/G                  HT/PER
                 (UTC)          (F)     (DEG/KT/KT) (MB)    (MI)  (FT/S)
NY HARB ENTRANCE 1150            75 76  260/ 14/ 16 1008.8          3/ 7
4S FIRE IS       NOT AVBL
20S FIRE ISLAND  1150            76 75  260/ 14/ 16 1009.0          4/10
GREAT SOUTH BAY  1200            77 80  260/ 14/ 17   N/A
23SW MTP         1250            76 74  240/ 14/ 16 1008.6          4/ 9
HUDSON CANYON    NOT AVBL
KINGS POINT      1200            77 71  260/  5/  7 1008.3
EXECUTION ROCKS  1200            81     200/  4/  4   N/A
CENTRAL LI SOUND NOT AVBL
EASTERN LI SOUND 1200            72 68  290/  6/  8   N/A
ROBBINS REEF     1200            75     260/ 12/ 13 1008.1
$$


>>>>>>>>>>>>>>>>>>>>>>>>>>>> KEY <<<<<<<<<<<<<<<<<<<<<<<<<<<
>                                                          <
>     SKY/WX - SKY CONDITION/PRESENT WEATHER               <
>     TMP    - TEMPERATURE IN FAHRENHEIT                   <
>     DP     - DEWPOINT IN FAHRENHEIT                      <
>     RH     - RELATIVE HUMIDITY IN PERCENT                <
>     WIND   - DIRECTION AND SPEED IN MPH                  <
>     PRES   - MEAN SEA LEVEL PRESSURE IN INCHES OF HG     <
>     WCI    - WIND CHILL INDEX                            <
>     VSB    - VISIBILITY IN MILES                         <
>     HX     - HEAT INDEX                                  <
>     TC     - TEMPERATURE IN CELSIUS                      <
>     VRB    - VARIABLE WIND DIRECTION                     <
>                                                          <
>>>>>>>>>>>>>>>>>>>>>>>>>>>> KEY <<<<<<<<<<<<<<<<<<<<<<<<<<<





USA.gov is the U.S. government's official web portal to all federal, state and local government web resources and services.